Flag for Australia Weather past 2 weeks in Geraldton, Western Australia, Australia

Now
64 °F

Mild.


Feels Like: 64 °F
Forecast: 55 / 69 °F
Wind: 9 mph from East

Location: Geraldton Airport

Current Time: Aug 4, 2015 at 5:54:55 PM

Latest Report: Aug 4, 2015 at 5:00 PM


Visibility: N/A

Pressure: 30.29 "Hg

Humidity: 54%

Dew point: 47 °F

Location of GeraldtonLocation

Historic Weather in Geraldton — Graph

°F

Geraldton temperature yesterday

Maximum temperature yesterday: 65 °F (at 2:00 PM)
Minimum temperature yesterday: 47 °F (at 6:00 AM)
Average temperature yesterday: 55 °F

Past Weeks' High & Low Weather Summary

 TemperatureHumidityPressure
High72 °F (Jul 29, 12:00 PM)99% (Jul 29, 6:00 AM)30.44 "Hg (Jul 29, 6:00 AM)
Low41 °F (Jul 25, 2:00 AM)25% (Jul 27, 2:00 PM)29.81 "Hg (Jul 20, 3:00 PM)
Average58 °F78%30.18 "Hg
* Reported Jul 20 3:00 PM — Aug 4 3:00 PM, Geraldton, Weather by CustomWeather, © 2015

Note: Actual official high and low records may vary slightly from our data, if they occured in-between our weather recording intervals... More about our weather records

Advertising

Geraldton weather history for previous 24 hours

 ConditionsComfort  
Time TempWeatherWind HumidityBarometerVisibility
3:00 PM
Tue, Aug 4
67 °FPartly sunny.12 mph46%30.29 "Hg19 mi
2:00 PM64 °FMild.12 mph64%30.30 "HgN/A
12:00 PM62 °FOvercast.12 mph61%30.36 "Hg19 mi
11:00 AM59 °FCool.9 mph63%30.38 "HgN/A
9:00 AM56 °FOvercast.8 mph66%30.40 "Hg19 mi
8:00 AM55 °FCool.7 mph65%30.38 "HgN/A
6:00 AM56 °FOvercast.12 mph60%30.35 "Hg19 mi
5:00 AM56 °FRefreshingly cool.14 mph60%30.34 "HgN/A
3:00 AM57 °FRefreshingly cool.15 mph58%30.34 "HgN/A
2:00 AM58 °FRefreshingly cool.13 mph53%30.36 "HgN/A
12:00 AM58 °FRefreshingly cool.15 mph53%30.36 "HgN/A
11:00 PM
Mon, Aug 3
56 °FCool.12 mph60%30.36 "HgN/A
9:00 PM57 °FCool.14 mph63%30.37 "HgN/A
8:00 PM56 °FCool.10 mph73%30.37 "HgN/A
6:00 PM59 °FCool.10 mph71%30.35 "HgN/A
5:00 PM62 °FCool.12 mph61%30.33 "HgN/A
Weather by CustomWeather, © 2015

See weather overviewHow to use our weather pages